Time,TemperatureF,DewpointF,PressureIn,WindDirection,WindDirectionDegrees,WindSpeedMPH,WindSpeedGustMPH,Humidity,HourlyPrecipIn,Conditions,Clouds,dailyrainin,SoftwareType,DateUTC
2013-11-18 00:03:00,32.5,12.7,30.26,North,0,0.0,0.0,44,0.00,,,0.00,WUHU21636XXSP,2013-11-18 06:03:00,
2013-11-18 00:13:00,32.5,12.7,30.26,North,0,0.0,0.0,45,0.00,,,0.00,WUHU21636XXSP,2013-11-18 06:13:00,
2013-11-18 00:23:00,32.5,12.7,30.26,North,0,0.0,0.0,45,0.00,,,0.00,WUHU21636XXSP,2013-11-18 06:23:00,
2013-11-18 00:33:00,32.5,12.7,30.27,North,0,0.0,0.0,46,0.00,,,0.00,WUHU21636XXSP,2013-11-18 06:33:00,
2013-11-18 00:43:00,32.5,12.7,30.27,North,0,0.0,0.0,46,0.00,,,0.00,WUHU21636XXSP,2013-11-18 06:43:00,
2013-11-18 00:53:00,31.8,13.1,30.27,North,0,0.0,0.0,46,0.00,,,0.00,WUHU21636XXSP,2013-11-18 06:53:00,
2013-11-18 01:03:00,31.1,13.5,30.27,North,0,0.0,0.0,48,0.00,,,0.00,WUHU21636XXSP,2013-11-18 07:03:00,
2013-11-18 01:13:00,29.1,13.6,30.27,NW,315,0.0,2.6,52,0.00,,,0.00,WUHU21636XXSP,2013-11-18 07:13:00,
2013-11-18 01:23:00,29.3,13.3,30.26,NW,315,0.0,3.5,51,0.00,,,0.00,WUHU21636XXSP,2013-11-18 07:23:00,
2013-11-18 01:33:00,29.1,13.1,30.27,NW,315,1.3,2.2,51,0.00,,,0.00,WUHU21636XXSP,2013-11-18 07:33:00,
2013-11-18 01:43:00,28.8,13.3,30.27,NW,315,2.2,3.8,52,0.00,,,0.00,WUHU21636XXSP,2013-11-18 07:43:00,
2013-11-18 01:53:00,28.6,13.5,30.27,NW,315,0.0,2.9,53,0.00,,,0.00,WUHU21636XXSP,2013-11-18 07:53:00,
2013-11-18 02:03:00,28.8,13.6,30.27,NW,315,0.0,0.0,53,0.00,,,0.00,WUHU21636XXSP,2013-11-18 08:03:00,
2013-11-18 02:14:00,28.8,13.6,30.27,NW,315,0.0,0.0,53,0.00,,,0.00,WUHU21636XXSP,2013-11-18 08:14:00,
2013-11-18 02:24:00,27.7,13.5,30.27,NW,315,2.6,2.6,55,0.00,,,0.00,WUHU21636XXSP,2013-11-18 08:24:00,
2013-11-18 02:34:00,27.3,13.5,30.28,NW,315,2.6,2.6,56,0.00,,,0.00,WUHU21636XXSP,2013-11-18 08:34:00,
2013-11-18 02:44:00,27.3,13.5,30.28,NW,315,1.3,2.6,56,0.00,,,0.00,WUHU21636XXSP,2013-11-18 08:44:00,
2013-11-18 02:54:00,27.1,13.3,30.28,NW,315,0.0,3.3,56,0.00,,,0.00,WUHU21636XXSP,2013-11-18 08:54:00,
2013-11-18 03:04:00,27.0,13.1,30.28,NW,315,0.0,1.7,56,0.00,,,0.00,WUHU21636XXSP,2013-11-18 09:04:00,
2013-11-18 03:14:00,26.8,12.9,30.28,NW,315,3.1,3.1,56,0.00,,,0.00,WUHU21636XXSP,2013-11-18 09:14:00,
2013-11-18 03:24:00,27.1,13.3,30.28,NW,315,0.4,3.1,56,0.00,,,0.00,WUHU21636XXSP,2013-11-18 09:24:00,
2013-11-18 03:34:00,26.8,13.8,30.29,NW,315,1.3,4.2,58,0.00,,,0.00,WUHU21636XXSP,2013-11-18 09:34:00,
2013-11-18 03:44:00,26.2,13.6,30.29,NW,315,0.4,5.8,59,0.00,,,0.00,WUHU21636XXSP,2013-11-18 09:44:00,
2013-11-18 03:54:00,26.2,13.6,30.29,NW,315,0.0,0.6,59,0.00,,,0.00,WUHU21636XXSP,2013-11-18 09:54:00,
2013-11-18 04:04:00,26.4,13.8,30.29,NW,315,0.0,4.4,59,0.00,,,0.00,WUHU21636XXSP,2013-11-18 10:04:00,
2013-11-18 04:14:00,26.4,13.5,30.29,NW,315,2.2,3.8,58,0.00,,,0.00,WUHU21636XXSP,2013-11-18 10:14:00,
2013-11-18 04:24:00,26.2,13.6,30.29,NW,315,3.5,4.0,60,0.00,,,0.00,WUHU21636XXSP,2013-11-18 10:24:00,
2013-11-18 04:34:00,26.1,14.0,30.29,NW,315,0.0,2.6,60,0.00,,,0.00,WUHU21636XXSP,2013-11-18 10:34:00,
2013-11-18 04:44:00,26.2,14.5,30.29,NW,315,4.9,4.9,61,0.00,,,0.00,WUHU21636XXSP,2013-11-18 10:44:00,
2013-11-18 04:54:00,25.9,14.2,30.30,WNW,292,1.5,4.9,61,0.00,,,0.00,WUHU21636XXSP,2013-11-18 10:54:00,
2013-11-18 05:04:00,25.9,14.2,30.30,NW,315,0.6,3.5,62,0.00,,,0.00,WUHU21636XXSP,2013-11-18 11:04:00,
2013-11-18 05:14:00,25.9,14.5,30.30,NW,315,2.0,2.6,62,0.00,,,0.00,WUHU21636XXSP,2013-11-18 11:14:00,
2013-11-18 05:24:00,25.3,14.4,30.30,NW,315,0.0,2.0,63,0.00,,,0.00,WUHU21636XXSP,2013-11-18 11:24:00,
2013-11-18 05:34:00,25.3,14.4,30.30,NW,315,0.0,1.3,63,0.00,,,0.00,WUHU21636XXSP,2013-11-18 11:34:00,
2013-11-18 05:44:00,25.3,14.4,30.30,NW,315,0.0,0.0,63,0.00,,,0.00,WUHU21636XXSP,2013-11-18 11:44:00,
2013-11-18 05:54:00,25.3,14.4,30.30,NW,315,1.1,1.1,63,0.00,,,0.00,WUHU21636XXSP,2013-11-18 11:54:00,
2013-11-18 06:04:00,25.3,14.4,30.30,WNW,292,0.0,2.0,63,0.00,,,0.00,WUHU21636XXSP,2013-11-18 12:04:00,
2013-11-18 06:14:00,24.8,13.8,30.30,NW,315,0.0,1.3,63,0.00,,,0.00,WUHU21636XXSP,2013-11-18 12:14:00,
2013-11-18 06:24:00,25.0,14.0,30.31,NW,315,2.9,2.9,63,0.00,,,0.00,WUHU21636XXSP,2013-11-18 12:24:00,
2013-11-18 06:34:00,25.3,14.4,30.31,NW,315,4.4,4.4,63,0.00,,,0.00,WUHU21636XXSP,2013-11-18 12:34:00,
2013-11-18 06:44:00,25.3,14.4,30.31,NNW,337,0.0,4.4,63,0.00,,,0.00,WUHU21636XXSP,2013-11-18 12:44:00,
2013-11-18 06:54:00,25.5,15.3,30.32,NW,315,0.0,4.4,65,0.00,,,0.00,WUHU21636XXSP,2013-11-18 12:54:00,
2013-11-18 07:04:00,25.3,15.4,30.32,NW,315,0.8,3.8,66,0.00,,,0.00,WUHU21636XXSP,2013-11-18 13:04:00,
2013-11-18 07:14:00,25.3,15.1,30.32,NW,315,0.0,4.9,65,0.00,,,0.00,WUHU21636XXSP,2013-11-18 13:14:00,
2013-11-18 07:24:00,25.3,15.1,30.32,NW,315,2.0,2.0,64,0.00,,,0.00,WUHU21636XXSP,2013-11-18 13:24:00,
2013-11-18 07:34:00,25.3,15.1,30.32,NW,315,3.5,3.5,64,0.00,,,0.00,WUHU21636XXSP,2013-11-18 13:34:00,
2013-11-18 07:44:00,25.5,14.9,30.32,NW,315,3.3,6.2,64,0.00,,,0.00,WUHU21636XXSP,2013-11-18 13:44:00,
2013-11-18 07:54:00,25.9,14.9,30.33,NW,315,0.0,3.3,63,0.00,,,0.00,WUHU21636XXSP,2013-11-18 13:54:00,
2013-11-18 08:04:00,26.2,15.6,30.33,NW,315,0.0,4.2,64,0.00,,,0.00,WUHU21636XXSP,2013-11-18 14:04:00,
2013-11-18 08:14:00,26.2,15.6,30.33,NW,315,4.4,4.4,64,0.00,,,0.00,WUHU21636XXSP,2013-11-18 14:14:00,
2013-11-18 08:24:00,26.8,16.2,30.34,WNW,292,0.0,4.4,64,0.00,,,0.00,WUHU21636XXSP,2013-11-18 14:24:00,
2013-11-18 08:34:00,27.3,16.3,30.34,WNW,292,0.0,0.0,63,0.00,,,0.00,WUHU21636XXSP,2013-11-18 14:34:00,
2013-11-18 08:44:00,28.0,16.7,30.34,WNW,292,0.0,0.0,62,0.00,,,0.00,WUHU21636XXSP,2013-11-18 14:44:00,
2013-11-18 08:54:00,28.6,17.1,30.34,WNW,292,0.0,2.4,62,0.00,,,0.00,WUHU21636XXSP,2013-11-18 14:54:00,
2013-11-18 09:04:00,28.8,17.6,30.34,WNW,292,0.4,0.8,63,0.00,,,0.00,WUHU21636XXSP,2013-11-18 15:04:00,
2013-11-18 09:14:00,28.9,17.8,30.34,WNW,292,0.0,2.2,63,0.00,,,0.00,WUHU21636XXSP,2013-11-18 15:14:00,
2013-11-18 09:24:00,29.5,17.6,30.34,WNW,292,0.0,3.3,60,0.00,,,0.00,WUHU21636XXSP,2013-11-18 15:24:00,
2013-11-18 09:34:00,30.0,17.8,30.34,WNW,292,0.6,0.6,60,0.00,,,0.00,WUHU21636XXSP,2013-11-18 15:34:00,
2013-11-18 09:44:00,31.1,18.9,30.34,WNW,292,0.0,1.5,60,0.00,,,0.00,WUHU21636XXSP,2013-11-18 15:44:00,
2013-11-18 09:54:00,32.2,19.8,30.34,WNW,292,0.0,0.0,60,0.00,,,0.00,WUHU21636XXSP,2013-11-18 15:54:00,
2013-11-18 10:04:00,33.1,20.7,30.34,WNW,292,0.0,0.0,60,0.00,,,0.00,WUHU21636XXSP,2013-11-18 16:04:00,
2013-11-18 10:14:00,34.5,20.3,30.34,West,270,0.0,0.0,56,0.00,,,0.00,WUHU21636XXSP,2013-11-18 16:14:00,
2013-11-18 10:24:00,36.7,21.0,30.33,West,270,0.0,2.4,53,0.00,,,0.00,WUHU21636XXSP,2013-11-18 16:24:00,
2013-11-18 10:34:00,38.7,21.9,30.33,West,270,0.8,4.0,51,0.00,,,0.00,WUHU21636XXSP,2013-11-18 16:34:00,
2013-11-18 10:44:00,40.6,22.3,30.33,WNW,292,6.0,6.0,48,0.00,,,0.00,WUHU21636XXSP,2013-11-18 16:44:00,
2013-11-18 10:54:00,42.6,22.6,30.34,West,270,0.0,6.4,45,0.00,,,0.00,WUHU21636XXSP,2013-11-18 16:54:00,
2013-11-18 11:04:00,45.1,21.6,30.33,WSW,247,2.9,13.8,39,0.00,,,0.00,WUHU21636XXSP,2013-11-18 17:04:00,
2013-11-18 11:14:00,48.0,20.7,30.33,West,270,5.3,12.0,34,0.00,,,0.00,WUHU21636XXSP,2013-11-18 17:14:00,
2013-11-18 11:24:00,49.3,21.2,30.33,West,270,3.1,14.9,33,0.00,,,0.00,WUHU21636XXSP,2013-11-18 17:24:00,
2013-11-18 11:34:00,50.9,21.2,30.32,WSW,247,8.7,19.6,31,0.00,,,0.00,WUHU21636XXSP,2013-11-18 17:34:00,
2013-11-18 11:44:00,51.6,22.5,30.32,West,270,2.6,19.0,32,0.00,,,0.00,WUHU21636XXSP,2013-11-18 17:44:00,
2013-11-18 11:54:00,53.2,20.7,30.31,West,270,8.5,17.8,28,0.00,,,0.00,WUHU21636XXSP,2013-11-18 17:54:00,
2013-11-18 12:04:00,54.7,21.9,30.30,WNW,292,7.6,22.3,28,0.00,,,0.00,WUHU21636XXSP,2013-11-18 18:04:00,
2013-11-18 12:14:00,55.6,21.7,30.30,WSW,247,7.3,22.1,27,0.00,,,0.00,WUHU21636XXSP,2013-11-18 18:14:00,
2013-11-18 12:24:00,56.8,21.9,30.29,West,270,8.9,20.8,26,0.00,,,0.00,WUHU21636XXSP,2013-11-18 18:24:00,
2013-11-18 12:34:00,57.7,22.6,30.29,WSW,247,8.9,25.0,26,0.00,,,0.00,WUHU21636XXSP,2013-11-18 18:34:00,
2013-11-18 12:44:00,58.3,22.1,30.29,WSW,247,9.8,25.9,25,0.00,,,0.00,WUHU21636XXSP,2013-11-18 18:44:00,
2013-11-18 12:54:00,59.0,22.8,30.28,WSW,247,8.0,21.9,25,0.00,,,0.00,WUHU21636XXSP,2013-11-18 18:54:00,
2013-11-18 13:04:00,59.7,22.5,30.27,West,270,11.6,24.8,24,0.00,,,0.00,WUHU21636XXSP,2013-11-18 19:04:00,
2013-11-18 13:14:00,59.5,22.3,30.27,West,270,9.8,21.9,24,0.00,,,0.00,WUHU21636XXSP,2013-11-18 19:14:00,
2013-11-18 13:24:00,60.3,22.8,30.27,West,270,6.9,20.8,24,0.00,,,0.00,WUHU21636XXSP,2013-11-18 19:24:00,
2013-11-18 13:34:00,60.4,22.1,30.26,SSW,202,14.0,26.6,23,0.00,,,0.00,WUHU21636XXSP,2013-11-18 19:34:00,
2013-11-18 13:44:00,60.6,23.2,30.26,West,270,9.3,24.3,24,0.00,,,0.00,WUHU21636XXSP,2013-11-18 19:44:00,
2013-11-18 13:54:00,61.2,22.6,30.26,WNW,292,8.7,22.5,23,0.00,,,0.00,WUHU21636XXSP,2013-11-18 19:54:00,
2013-11-18 14:04:00,61.3,23.7,30.26,West,270,10.2,21.2,24,0.00,,,0.00,WUHU21636XXSP,2013-11-18 20:04:00,
2013-11-18 14:14:00,61.9,23.2,30.26,West,270,10.9,22.3,23,0.00,,,0.00,WUHU21636XXSP,2013-11-18 20:14:00,
2013-11-18 14:24:00,62.2,23.5,30.25,West,270,8.5,22.3,23,0.00,,,0.00,WUHU21636XXSP,2013-11-18 20:24:00,
2013-11-18 14:34:00,62.2,22.6,30.25,West,270,8.0,19.4,22,0.00,,,0.00,WUHU21636XXSP,2013-11-18 20:34:00,
2013-11-18 14:44:00,62.2,23.5,30.24,West,270,8.2,19.4,23,0.00,,,0.00,WUHU21636XXSP,2013-11-18 20:44:00,
2013-11-18 14:54:00,63.0,22.3,30.24,West,270,6.9,18.5,21,0.00,,,0.00,WUHU21636XXSP,2013-11-18 20:54:00,
2013-11-18 15:04:00,63.1,22.3,30.24,West,270,10.0,17.8,21,0.00,,,0.00,WUHU21636XXSP,2013-11-18 21:04:00,
2013-11-18 15:14:00,63.3,22.5,30.24,WSW,247,13.1,18.3,21,0.00,,,0.00,WUHU21636XXSP,2013-11-18 21:14:00,
2013-11-18 15:24:00,63.1,23.4,30.23,WSW,247,8.7,20.8,22,0.00,,,0.00,WUHU21636XXSP,2013-11-18 21:24:00,
2013-11-18 15:34:00,62.8,24.1,30.23,West,270,7.6,18.1,23,0.00,,,0.00,WUHU21636XXSP,2013-11-18 21:34:00,
2013-11-18 15:44:00,63.3,24.4,30.23,WSW,247,10.5,16.7,22,0.00,,,0.00,WUHU21636XXSP,2013-11-18 21:44:00,
2013-11-18 15:54:00,63.0,22.3,30.22,West,270,13.1,20.5,21,0.00,,,0.00,WUHU21636XXSP,2013-11-18 21:54:00,
2013-11-18 16:04:00,63.0,24.1,30.22,SW,225,12.0,17.6,23,0.00,,,0.00,WUHU21636XXSP,2013-11-18 22:04:00,
2013-11-18 16:14:00,62.8,24.1,30.22,West,270,11.8,18.7,23,0.00,,,0.00,WUHU21636XXSP,2013-11-18 22:14:00,
2013-11-18 16:24:00,62.2,23.5,30.22,West,270,9.3,17.4,23,0.00,,,0.00,WUHU21636XXSP,2013-11-18 22:24:00,
2013-11-18 16:34:00,61.9,24.3,30.22,SW,225,9.8,12.9,24,0.00,,,0.00,WUHU21636XXSP,2013-11-18 22:34:00,
2013-11-18 16:44:00,61.7,23.2,30.22,SW,225,7.3,10.7,23,0.00,,,0.00,WUHU21636XXSP,2013-11-18 22:44:00,
2013-11-18 16:54:00,60.8,23.4,30.22,WSW,247,6.4,11.1,24,0.00,,,0.00,WUHU21636XXSP,2013-11-18 22:54:00,
2013-11-18 17:04:00,59.9,22.5,30.21,SW,225,4.0,10.5,24,0.00,,,0.00,WUHU21636XXSP,2013-11-18 23:04:00,
2013-11-18 17:14:00,59.0,22.8,30.22,SW,225,6.0,6.4,25,0.00,,,0.00,WUHU21636XXSP,2013-11-18 23:14:00,
2013-11-18 17:24:00,57.9,22.8,30.21,SSW,202,0.0,8.0,26,0.00,,,0.00,WUHU21636XXSP,2013-11-18 23:24:00,
2013-11-18 17:34:00,57.0,23.0,30.21,South,180,2.2,3.3,27,0.00,,,0.00,WUHU21636XXSP,2013-11-18 23:34:00,
2013-11-18 17:44:00,56.1,22.1,30.21,SSW,202,3.5,5.8,27,0.00,,,0.00,WUHU21636XXSP,2013-11-18 23:44:00,
2013-11-18 17:54:00,55.0,22.1,30.21,SSW,202,2.9,4.9,28,0.00,,,0.00,WUHU21636XXSP,2013-11-18 23:54:00,
2013-11-18 18:04:00,54.3,21.6,30.21,South,180,3.5,5.8,28,0.00,,,0.00,WUHU21636XXSP,2013-11-19 00:04:00,
2013-11-18 18:14:00,53.6,21.0,30.21,South,180,3.3,6.7,28,0.00,,,0.00,WUHU21636XXSP,2013-11-19 00:14:00,
2013-11-18 18:24:00,52.7,21.2,30.21,SSW,202,0.8,5.3,29,0.00,,,0.00,WUHU21636XXSP,2013-11-19 00:24:00,
2013-11-18 18:34:00,51.4,21.0,30.21,SW,225,4.4,10.0,30,0.00,,,0.00,WUHU21636XXSP,2013-11-19 00:34:00,
2013-11-18 18:44:00,50.5,20.8,30.21,SW,225,4.4,9.3,31,0.00,,,0.00,WUHU21636XXSP,2013-11-19 00:44:00,
2013-11-18 18:54:00,49.8,20.8,30.21,SW,225,5.1,7.8,32,0.00,,,0.00,WUHU21636XXSP,2013-11-19 00:54:00,
2013-11-18 19:04:00,49.1,21.0,30.21,SW,225,5.8,11.1,33,0.00,,,0.00,WUHU21636XXSP,2013-11-19 01:04:00,
2013-11-18 19:14:00,48.7,20.7,30.21,SW,225,5.8,6.4,33,0.00,,,0.00,WUHU21636XXSP,2013-11-19 01:14:00,
2013-11-18 19:24:00,48.0,20.7,30.21,SSW,202,7.8,9.8,34,0.00,,,0.00,WUHU21636XXSP,2013-11-19 01:24:00,
2013-11-18 19:34:00,47.5,20.8,30.21,SW,225,5.8,10.5,35,0.00,,,0.00,WUHU21636XXSP,2013-11-19 01:34:00,
2013-11-18 19:44:00,47.1,21.2,30.21,WSW,247,4.9,10.5,36,0.00,,,0.00,WUHU21636XXSP,2013-11-19 01:44:00,
2013-11-18 19:54:00,46.6,20.8,30.21,WSW,247,4.4,11.1,36,0.00,,,0.00,WUHU21636XXSP,2013-11-19 01:54:00,
2013-11-18 20:04:00,46.2,20.5,30.21,WSW,247,2.6,10.0,36,0.00,,,0.00,WUHU21636XXSP,2013-11-19 02:04:00,
2013-11-18 20:15:00,45.9,20.8,30.21,West,270,2.9,4.6,37,0.00,,,0.00,WUHU21636XXSP,2013-11-19 02:15:00,
2013-11-18 20:25:00,45.3,21.0,30.21,WSW,247,5.8,11.4,38,0.00,,,0.00,WUHU21636XXSP,2013-11-19 02:25:00,
2013-11-18 20:35:00,45.0,21.4,30.22,WSW,247,7.3,14.7,39,0.00,,,0.00,WUHU21636XXSP,2013-11-19 02:35:00,
2013-11-18 20:45:00,44.8,21.2,30.22,West,270,4.9,8.2,39,0.00,,,0.00,WUHU21636XXSP,2013-11-19 02:45:00,
2013-11-18 20:55:00,44.8,21.2,30.22,WSW,247,1.1,10.9,39,0.00,,,0.00,WUHU21636XXSP,2013-11-19 02:55:00,
2013-11-18 21:05:00,45.0,20.7,30.22,WSW,247,0.6,2.9,38,0.00,,,0.00,WUHU21636XXSP,2013-11-19 03:05:00,
2013-11-18 21:15:00,44.4,20.8,30.23,West,270,0.0,1.5,39,0.00,,,0.00,WUHU21636XXSP,2013-11-19 03:15:00,
2013-11-18 21:25:00,43.9,21.0,30.23,West,270,0.8,0.8,40,0.00,,,0.00,WUHU21636XXSP,2013-11-19 03:25:00,
2013-11-18 21:35:00,43.5,20.7,30.23,West,270,3.8,3.8,40,0.00,,,0.00,WUHU21636XXSP,2013-11-19 03:35:00,
2013-11-18 21:45:00,43.7,20.8,30.23,West,270,0.0,10.5,40,0.00,,,0.00,WUHU21636XXSP,2013-11-19 03:45:00,
2013-11-18 21:55:00,43.5,20.7,30.23,WSW,247,6.7,10.9,40,0.00,,,0.00,WUHU21636XXSP,2013-11-19 03:55:00,
2013-11-18 22:05:00,43.7,20.1,30.23,WSW,247,6.4,11.8,39,0.00,,,0.00,WUHU21636XXSP,2013-11-19 04:05:00,
2013-11-18 22:15:00,43.7,20.1,30.23,West,270,6.0,14.0,39,0.00,,,0.00,WUHU21636XXSP,2013-11-19 04:15:00,
2013-11-18 22:25:00,43.5,19.9,30.23,West,270,0.0,9.3,39,0.00,,,0.00,WUHU21636XXSP,2013-11-19 04:25:00,
2013-11-18 22:35:00,43.0,20.1,30.23,WSW,247,1.5,1.5,40,0.00,,,0.00,WUHU21636XXSP,2013-11-19 04:35:00,
2013-11-18 22:45:00,42.4,19.8,30.23,WSW,247,0.0,3.8,40,0.00,,,0.00,WUHU21636XXSP,2013-11-19 04:45:00,
2013-11-18 22:55:00,42.1,19.9,30.23,West,270,0.0,0.0,41,0.00,,,0.00,WUHU21636XXSP,2013-11-19 04:55:00,
2013-11-18 23:05:00,41.7,19.6,30.23,West,270,0.0,3.5,41,0.00,,,0.00,WUHU21636XXSP,2013-11-19 05:05:00,
2013-11-18 23:15:00,41.5,19.4,30.23,WSW,247,0.0,3.8,41,0.00,,,0.00,WUHU21636XXSP,2013-11-19 05:15:00,
2013-11-18 23:25:00,41.4,19.2,30.23,WSW,247,1.3,6.2,42,0.00,,,0.00,WUHU21636XXSP,2013-11-19 05:25:00,
2013-11-18 23:35:00,40.8,18.9,30.23,WSW,247,2.4,2.4,41,0.00,,,0.00,WUHU21636XXSP,2013-11-19 05:35:00,
2013-11-18 23:45:00,41.2,19.0,30.23,SW,225,4.9,12.7,41,0.00,,,0.00,WUHU21636XXSP,2013-11-19 05:45:00,
2013-11-18 23:55:00,41.4,19.2,30.23,WSW,247,4.4,10.9,41,0.00,,,0.00,WUHU21636XXSP,2013-11-19 05:55:00,